Wind_Speed
9 11 14 15 18 19 20 19 19 18 20 24 26 26 24 21 22 20 20 18 17 17 17 16 17 19 20 23 25 26 24 25 26 27 27 28 30 30 28 27 25 24 25
12 12 12 14 18 20 21 22 23 23 20 25 28 28 26 24 24 25 23 23 23 22 22 21 20 20 20 21 22 23 24 25 24 25 27 27 29 30 31 29 27 27 25
13 14 15 16 15 18 22 23 23 23 20 27 33 32 31 29 26 25 23 23 24 26 26 25 24 23 22 23 21 21 21 21 21 20 22 25 27 29 31 31 29 29 27
16 15 16 23 20 17 23 22 22 23 23 28 34 33 32 33 32 28 25 24 26 28 28 29 28 26 26 25 24 21 20 20 22 22 20 22 24 27 28 31 31 30 29
20 21 25 25 20 19 23 24 23 23 24 29 35 35 33 33 34 33 30 28 26 27 29 29 30 30 30 29 28 25 22 21 22 22 21 20 22 25 27 29 31 30 29
23 27 25 25 20 19 26 27 25 23 24 29 35 36 36 35 34 33 31 30 30 29 29 30 30 31 31 32 30 27 26 24 22 21 21 21 21 24 28 30 30 31 29
22 23 25 22 25 21 27 26 24 23 25 29 35 37 39 39 38 34 32 31 29 27 27 26 26 27 28 30 30 29 28 26 23 22 21 21 22 23 26 31 31 31 30
24 31 23 24 29 29 28 27 24 25 28 34 35 36 39 40 38 36 33 32 31 29 27 25 25 27 26 28 29 29 29 27 24 23 24 23 22 24 25 27 32 32 31
30 28 27 26 24 24 27 27 28 28 30 33 35 35 38 38 39 36 33 32 31 31 30 28 29 28 29 29 28 30 30 29 27 25 26 26 26 26 26 27 29 33 32
36 33 28 27 28 28 32 34 32 31 34 34 35 34 37 38 38 34 30 30 31 32 33 32 32 31 31 30 29 29 28 29 28 26 24 26 26 27 26 28 27 34 33
31 27 29 30 32 33 36 38 36 37 36 36 35 36 39 41 40 37 33 31 31 33 35 35 34 33 31 28 27 27 27 25 26 26 25 25 26 26 28 28 28 28 36
33 34 38 38 36 37 37 38 38 38 39 37 39 39 40 40 40 37 33 33 29 29 33 37 39 35 32 28 24 26 27 27 26 28 28 29 26 26 26 26 28 28 31
33 35 37 39 40 41 37 40 41 40 40 41 40 39 40 39 41 36 31 35 35 40 40 33 43 37 30 31 27 28 29 30 30 30 30 30 29 26 26 24 25 27 29
37 38 39 42 41 39 41 42 41 41 42 43 42 41 41 38 41 35 32 34 38 32 37 40 39 43 35 32 31 31 32 31 31 32 31 32 31 28 26 24 23 26 27
37 38 42 45 43 44 42 44 43 44 44 43 45 43 41 39 37 33 36 36 42 39 41 43 42 39 29 34 29 34 34 36 32 32 31 29 29 29 29 24 23 24 28
41 40 42 45 48 46 46 45 47 47 46 45 45 43 42 39 36 34 38 35 37 36 44 36 39 39 34 31 31 28 29 35 33 32 29 27 25 26 30 27 24 24 26
43 44 46 46 49 49 48 47 50 52 49 48 46 44 43 39 38 37 37 35 37 38 42 42 38 38 33 32 33 29 27 31 33 30 28 27 24 24 27 29 27 24 24
46 47 49 50 51 50 50 50 51 53 50 50 46 43 40 41 39 35 36 38 38 37 42 41 38 35 33 33 34 33 33 33 32 30 27 27 24 23 26 27 28 30 27
49 49 52 54 56 53 54 51 49 52 52 51 46 41 42 43 39 40 41 38 38 40 42 42 36 35 33 33 32 33 34 35 32 29 28 28 29 24 25 24 24 23 22
52 53 53 53 54 54 56 52 51 53 50 46 44 43 44 43 43 44 43 41 40 41 42 38 35 33 37 37 34 34 35 35 31 30 30 28 30 26 24 25 22 22 22
53 54 52 50 51 53 51 51 51 49 45 45 42 42 42 46 48 47 41 38 40 40 41 36 35 35 35 36 36 37 36 31 31 30 30 30 31 28 24 25 24 26 24
52 52 50 49 46 48 51 50 46 44 45 43 43 43 44 42 43 42 40 38 41 40 35 36 29 32 38 36 38 36 32 30 30 33 33 32 30 27 24 25 25 25 23
49 49 48 45 45 45 43 41 42 42 40 41 42 41 40 40 40 38 38 33 34 34 34 31 35 36 37 35 36 33 30 29 33 31 29 28 28 27 24 25 25 25 22
47 46 44 44 42 39 37 33 36 35 37 40 41 37 35 33 30 29 27 29 31 31 31 34 36 39 36 37 32 30 28 31 30 28 28 25 26 24 25 25 25 27 27
45 43 41 37 36 34 28 29 32 35 37 39 37 30 28 28 28 26 26 27 29 30 33 37 39 34 35 33 29 28 27 30 27 25 22 21 21 20 22 25 26 26 28
41 39 33 32 29 28 27 29 33 36 35 34 29 27 26 27 25 26 25 28 29 32 35 36 34 34 32 27 26 25 28 24 25 19 17 14 16 19 22 25 25 23 21
Wind_Direction
320 322 339 351 358 351 346 341 342 345 351 353 350 344 340 337 334 333 329 322 320 317 314 311 307 307 309 311 310 307 303 296 287 279 272 267 262 259 259 258 254 252 248
305 300 314 337 346 350 338 334 330 339 342 348 348 347 342 334 331 328 327 326 322 316 309 307 307 312 311 307 306 306 308 303 292 282 276 271 264 258 254 253 253 247 244
302 293 301 307 319 339 336 325 323 321 327 342 345 341 339 340 336 331 327 329 323 318 315 313 314 316 318 318 312 308 305 300 297 294 287 275 268 263 257 254 251 249 242
325 309 325 311 294 311 325 317 312 309 315 331 336 337 337 337 337 337 333 329 322 316 316 320 318 318 318 321 321 317 308 296 293 295 290 284 274 268 262 256 250 247 244
328 325 312 323 292 286 310 311 308 302 305 321 327 334 335 334 332 329 330 329 323 316 313 313 315 318 317 319 321 320 312 302 294 291 289 285 278 270 264 259 255 251 246
316 321 316 308 300 283 303 309 306 303 306 321 331 334 334 331 328 326 325 324 321 318 312 310 313 317 317 317 317 316 310 304 298 290 283 282 279 267 262 257 254 251 248
311 321 320 319 313 284 299 304 300 303 308 317 326 329 330 330 329 327 324 319 316 312 308 310 314 316 317 313 312 309 306 302 297 290 282 278 275 274 265 256 252 251 248
310 313 305 305 303 289 286 295 294 297 300 309 313 320 326 324 324 325 323 319 315 312 310 313 312 313 318 312 308 306 304 299 294 288 284 282 276 271 271 263 253 249 250
305 306 294 304 303 284 290 299 296 296 300 311 311 313 321 323 320 322 319 312 307 307 309 313 315 317 314 313 310 307 303 300 292 287 285 284 276 271 267 265 254 248 247
308 306 299 300 304 292 287 297 299 295 289 302 313 315 319 321 319 319 311 305 302 303 306 309 313 314 312 312 312 309 298 298 296 289 286 289 283 272 267 261 258 247 247
301 306 310 308 303 297 294 292 297 298 298 303 311 318 322 324 322 316 311 303 305 305 304 308 307 304 310 314 313 310 305 300 294 290 289 291 288 274 269 260 253 250 243
287 299 304 305 302 297 292 291 296 298 298 306 313 319 322 319 317 310 301 303 306 305 304 306 300 299 304 307 306 309 313 309 302 294 289 284 285 278 268 264 252 248 244
283 295 298 299 300 300 298 297 300 297 298 304 311 316 318 315 311 303 298 300 299 298 294 297 301 288 296 300 297 300 304 307 305 298 293 285 275 273 268 265 256 247 245
278 290 292 294 296 297 291 292 294 296 295 300 308 314 314 309 303 297 295 291 300 294 308 303 295 297 291 303 299 297 300 302 302 297 291 288 281 265 262 262 259 247 243
282 286 288 291 294 292 289 290 291 292 295 300 302 306 309 303 300 292 296 287 290 301 302 300 294 294 299 301 293 296 294 300 299 296 291 287 282 267 262 257 256 252 242
280 279 282 290 291 288 287 286 285 287 289 295 298 302 304 298 296 295 293 291 291 292 301 302 298 303 303 300 296 302 290 294 295 293 290 292 288 271 261 255 254 254 244
274 277 282 284 286 287 285 282 281 284 288 295 299 301 302 296 293 290 290 292 285 290 296 300 293 296 312 306 303 303 299 296 294 290 291 289 290 276 262 257 253 249 244
271 276 279 282 282 282 282 279 280 284 290 295 298 299 299 293 292 288 286 287 283 288 291 296 295 295 302 302 303 302 300 294 294 290 291 289 289 282 268 263 252 253 237
269 272 274 275 277 278 277 277 278 282 288 294 295 295 292 290 289 289 284 281 280 284 288 292 292 295 303 303 300 300 294 296 292 288 287 288 288 279 268 257 249 247 226
268 270 269 268 269 270 272 275 276 279 290 290 291 291 288 287 288 286 277 275 278 280 287 287 287 297 299 304 299 295 295 295 292 289 287 282 281 277 267 253 246 233 226
265 264 265 267 267 267 270 273 275 283 286 284 288 287 286 286 283 280 273 277 278 281 285 285 278 288 296 301 295 296 297 293 291 292 283 277 277 271 261 249 237 232 220
260 260 262 266 269 268 268 271 279 280 281 285 285 286 287 280 274 272 276 273 275 281 287 286 295 293 297 296 296 297 294 295 294 291 284 277 269 264 255 243 231 233 218
253 256 260 263 266 270 276 276 276 279 282 279 283 287 275 268 271 276 280 279 278 283 284 293 293 294 296 294 294 294 296 298 299 292 281 276 269 261 248 234 223 221 219
252 257 264 268 273 278 275 273 275 273 274 278 283 275 274 277 277 278 276 275 280 286 290 290 288 293 293 294 294 295 297 301 298 291 287 278 266 253 236 221 215 216 214
254 259 264 271 272 268 262 263 266 271 274 277 271 269 271 272 274 274 279 283 280 283 286 288 291 290 291 292 293 297 299 299 298 295 287 274 256 235 218 209 203 217 216
253 259 267 261 255 254 263 269 271 272 272 265 265 269 273 275 274 279 279 279 280 282 285 287 287 289 292 292 296 291 298 297 297 290 289 265 241 213 202 199 200 214 203
Height
5905 5903 5901 5899 5896 5895 5895 5893 5892 5890 5889 5888 5886 5885 5884 5882 5881 5879 5878 5877 5875 5874 5873 5871 5870 5868 5866 5864 5862 5861 5860 5859 5858 5857 5856 5856 5857 5857 5859 5860 5862 5863 5864
5903 5902 5900 5898 5895 5893 5892 5890 5889 5887 5888 5887 5885 5882 5881 5879 5877 5875 5874 5872 5871 5869 5868 5866 5866 5865 5864 5863 5860 5858 5855 5854 5852 5851 5851 5851 5851 5852 5854 5855 5857 5857 5860
5900 5900 5900 5897 5895 5892 5891 5889 5888 5888 5886 5884 5881 5879 5877 5875 5874 5872 5870 5868 5866 5865 5862 5861 5860 5859 5858 5858 5857 5854 5852 5850 5849 5848 5846 5846 5846 5847 5848 5849 5851 5853 5854
5897 5896 5897 5896 5894 5892 5890 5889 5888 5887 5884 5881 5879 5876 5874 5871 5869 5869 5867 5865 5863 5861 5858 5856 5855 5854 5852 5852 5851 5848 5847 5846 5845 5844 5843 5842 5841 5841 5842 5843 5846 5847 5850
5894 5894 5893 5892 5891 5891 5890 5888 5887 5885 5882 5879 5876 5873 5872 5870 5867 5865 5863 5861 5859 5858 5856 5853 5850 5848 5847 5845 5843 5842 5841 5841 5840 5839 5838 5837 5837 5837 5837 5838 5839 5842 5844
5893 5891 5890 5890 5889 5889 5888 5885 5884 5882 5879 5876 5871 5869 5869 5868 5866 5863 5861 5859 5858 5855 5853 5850 5847 5844 5841 5840 5838 5837 5836 5835 5835 5834 5833 5833 5832 5832 5832 5833 5835 5836 5839
5890 5889 5889 5888 5887 5886 5886 5883 5882 5880 5877 5873 5869 5867 5865 5863 5861 5859 5857 5856 5855 5853 5850 5847 5843 5841 5839 5837 5835 5833 5832 5831 5830 5829 5829 5829 5828 5828 5827 5828 5830 5831 5833
5886 5885 5886 5885 5884 5883 5882 5881 5880 5877 5875 5871 5869 5866 5863 5861 5858 5855 5853 5851 5849 5847 5845 5842 5840 5838 5836 5833 5831 5829 5828 5826 5825 5824 5823 5824 5823 5823 5822 5823 5824 5825 5827
5881 5881 5881 5881 5879 5878 5878 5878 5877 5875 5872 5869 5867 5864 5860 5857 5855 5853 5850 5848 5845 5842 5841 5839 5836 5834 5832 5829 5827 5825 5823 5821 5821 5819 5818 5817 5817 5817 5816 5817 5818 5820 5822
5874 5874 5877 5877 5875 5874 5874 5873 5872 5871 5870 5866 5862 5860 5857 5854 5852 5850 5846 5843 5840 5838 5836 5834 5832 5830 5828 5825 5823 5821 5819 5817 5815 5814 5813 5811 5811 5810 5810 5810 5812 5814 5816
5869 5869 5871 5871 5869 5869 5868 5867 5866 5863 5863 5861 5859 5855 5851 5847 5845 5842 5840 5838 5836 5834 5832 5830 5828 5826 5824 5821 5819 5817 5814 5812 5810 5808 5807 5806 5805 5804 5803 5803 5805 5807 5810
5864 5865 5864 5864 5863 5863 5862 5861 5859 5857 5854 5854 5852 5849 5846 5843 5841 5838 5837 5834 5832 5830 5828 5826 5823 5821 5819 5817 5815 5812 5809 5807 5805 5803 5801 5800 5799 5797 5797 5796 5798 5801 5803
5859 5859 5859 5858 5855 5854 5854 5852 5851 5850 5848 5847 5847 5845 5842 5839 5836 5834 5831 5829 5827 5825 5820 5818 5817 5815 5813 5811 5809 5806 5804 5801 5800 5797 5795 5793 5792 5791 5791 5791 5792 5794 5797
5854 5854 5854 5852 5850 5848 5846 5846 5845 5843 5842 5842 5839 5839 5837 5834 5832 5828 5827 5825 5822 5817 5814 5812 5812 5808 5807 5806 5804 5801 5798 5795 5794 5791 5788 5786 5785 5785 5784 5785 5786 5788 5791
5847 5848 5846 5845 5844 5842 5841 5839 5839 5837 5835 5835 5833 5834 5832 5829 5826 5823 5821 5819 5816 5812 5810 5808 5803 5796 5799 5799 5797 5795 5791 5789 5787 5784 5781 5780 5779 5778 5778 5779 5780 5782 5784
5840 5841 5840 5839 5836 5835 5834 5832 5831 5830 5830 5830 5828 5827 5827 5822 5820 5818 5814 5813 5810 5807 5803 5802 5799 5796 5794 5791 5791 5787 5784 5783 5780 5778 5775 5773 5773 5771 5772 5774 5774 5776 5778
5833 5833 5832 5831 5829 5829 5827 5826 5823 5823 5824 5822 5821 5820 5818 5816 5813 5812 5809 5808 5805 5801 5798 5796 5793 5791 5787 5786 5784 5780 5777 5775 5773 5771 5769 5768 5767 5766 5765 5767 5769 5771 5773
5826 5825 5824 5823 5822 5821 5820 5818 5817 5815 5814 5815 5815 5812 5811 5809 5807 5805 5802 5800 5798 5796 5793 5790 5787 5784 5783 5780 5778 5774 5771 5769 5766 5764 5763 5762 5761 5761 5759 5761 5764 5764 5766
5817 5817 5816 5815 5813 5813 5811 5810 5810 5808 5808 5808 5807 5805 5804 5802 5800 5798 5795 5793 5792 5789 5787 5784 5781 5779 5776 5774 5771 5768 5764 5762 5759 5758 5756 5755 5755 5756 5754 5755 5758 5759 5762
5808 5806 5806 5805 5804 5803 5801 5803 5803 5801 5803 5801 5799 5798 5797 5795 5793 5791 5788 5786 5786 5782 5780 5777 5775 5773 5770 5768 5765 5761 5758 5754 5752 5751 5749 5749 5749 5749 5750 5750 5754 5755 5758
5796 5797 5796 5795 5794 5793 5793 5794 5794 5796 5795 5793 5793 5792 5789 5787 5785 5782 5781 5780 5778 5776 5773 5771 5768 5766 5764 5761 5757 5753 5750 5748 5746 5744 5743 5743 5742 5742 5743 5744 5749 5751 5754
5786 5786 5787 5786 5787 5785 5783 5785 5788 5787 5786 5785 5784 5783 5781 5779 5776 5775 5774 5772 5771 5769 5767 5764 5760 5760 5757 5754 5750 5747 5744 5741 5739 5737 5736 5735 5734 5734 5736 5738 5742 5746 5749
5775 5776 5776 5778 5777 5777 5779 5779 5779 5779 5778 5777 5776 5774 5772 5770 5769 5769 5767 5766 5765 5763 5761 5757 5755 5754 5749 5747 5744 5740 5736 5734 5731 5729 5727 5727 5726 5727 5730 5732 5737 5742 5746
5765 5766 5770 5770 5770 5770 5770 5771 5772 5771 5770 5769 5767 5766 5764 5764 5763 5762 5760 5759 5758 5756 5754 5751 5749 5747 5743 5740 5736 5733 5730 5727 5724 5722 5719 5718 5717 5719 5722 5727 5732 5737 5741
5756 5760 5761 5761 5762 5762 5762 5762 5762 5762 5762 5762 5760 5759 5757 5757 5756 5755 5754 5753 5752 5749 5747 5745 5742 5740 5737 5733 5730 5727 5724 5721 5717 5714 5711 5711 5711 5713 5718 5723 5728 5733 5737
5749 5751 5753 5753 5754 5754 5754 5754 5755 5755 5754 5754 5753 5752 5751 5751 5750 5749 5748 5747 5745 5742 5741 5739 5737 5734 5730 5727 5724 5722 5718 5715 5712 5709 5707 5705 5707 5710 5714 5720 5725 5731 5734